O3B FM16 (43232 NORAD) Tracking and Keplerian Element Data

This shows tracking and keplerian element data for the satellite.

Feedback or suggestion? Click here.




ElementValue
Catalog43232
NameO3B FM16
Epoch Orbit670
Epoch Day202.32043997
Epoch Year2018
RAAN356.9358
Inclination0.0448
Eccentricity0.0002877
Argument of Perigee128.8063
Mean Anonmoly234.2814
Mean Motion5.0011647
Decay Rate-2.9E-07
L11 43232U 18024B 18202.32043997 -.00000029 00000-0 00000-0 0 9991
L22 43232 0.0448 356.9358 0002877 128.8063 234.2814 5.00116470 6704

Live tracking and technical data element details for O3B FM16 (NORAD 43232). O3B FM16 can be tracked NOW for your location showing map with azimuth and elevation plus other details from your city location.

Track the satellite on the map from your city or location and see movement details for azimuth, elevation, latitude, longitude, range, height, and movement on the map or in text.







IsCatalogInMostPopularTable: catalog: 43232, numindb: 41
Update: records affected: 1



GetName: 43232 O3B FM16

Hit Count: updated at: Mon, 23 Jul 2018 07:48:51 GMT